Weather History for KLWC - October, 2011

Change the Weather History Date:

Saturday, October 29, 2011

  Actual Average Record
Temperature  
Mean Temperature 46 °F 51 °F  
Max Temperature 71 °F 64 °F 86 °F (1997)
Min Temperature 23 °F 39 °F 23 °F (2011)
Degree Days  
Heating Degree Days 18 14  
Month to date heating degree days 272  
Since 1 July heating degree days 335  
Cooling Degree Days 0 0  
Month to date cooling degree days 24  
Year to date cooling degree days 1368  
Moisture  
Dew Point 24 °F    
Average Humidity 44    
Maximum Humidity 92    
Minimum Humidity 17    
Precipitation  
Precipitation 0.00 in 0.07 in 1.28 in (2013)
Month to date precipitation 2.75  
Year to date precipitation 34.77  
Sea Level Pressure  
Sea Level Pressure 30.06 in    
Wind  
Wind Speed 6 mph (South)    
Max Wind Speed 17 mph    
Max Gust Speed 26 mph    
Visibility 10 miles    
Events      
T = Trace of Precipitation, MM = Missing Value Source: NWS Daily Summary

Daily Weather History Graph

Daily Weather History Graph

Search for Another Location

Airport or City:

Trip Planner

Search our weather history database for the weather conditions in past years. The results will help you decide how hot, cold, wet, or windy it might be!

Date:

Astronomy

Oct. 29, 2011 Rise Set
Actual Time 7:44 AM CDT 6:23 PM CDT
Civil Twilight 7:17 AM CDT 6:51 PM CDT
Nautical Twilight 6:45 AM CDT 7:22 PM CDT
Astronomical Twilight 6:14 AM CDT 7:53 PM CDT
Moon 11:05 AM CDT (10/29) 8:50 PM CDT (10/29)
Length of Visible Light 11h 34m
Length of Day
10h 39m
Waxing Crescent, 12% of the Moon is Illuminated
Oct 29
Waxing Crescent
Nov 2
First Quarter
Nov 10
Full
Nov 18
Last Quarter
Nov 25
New

Hourly Weather History & Observations

Time (CDT) Temp. Windchill Dew Point Humidity Pressure Visibility Wind Dir Wind Speed Gust Speed Precip Events Conditions
1:52 AM 27.0 °F - 21.9 °F 81% 30.20 in 10.0 mi Calm Calm - N/A   Clear
2:52 AM 26.1 °F - 21.0 °F 81% 30.19 in 10.0 mi Calm Calm - N/A   Clear
3:52 AM 28.0 °F - 21.9 °F 78% 30.18 in 10.0 mi Calm Calm - N/A   Clear
5:52 AM 23.0 °F 18.4 °F 21.0 °F 92% 30.17 in 9.0 mi NE 3.5 mph - N/A   Clear
6:52 AM 23.0 °F - 21.0 °F 92% 30.18 in 10.0 mi Calm Calm - N/A   Clear
7:52 AM 24.1 °F 18.2 °F 21.9 °F 91% 30.17 in 8.0 mi East 4.6 mph - N/A   Clear
8:52 AM 37.9 °F 33.5 °F 30.9 °F 76% 30.17 in 8.0 mi East 5.8 mph - N/A   Clear
9:52 AM 51.1 °F - 28.9 °F 43% 30.14 in 10.0 mi SE 9.2 mph - N/A   Clear
10:52 AM 57.0 °F - 27.0 °F 32% 30.12 in 10.0 mi South 10.4 mph - N/A   Clear
11:52 AM 63.0 °F - 26.1 °F 25% 30.09 in 10.0 mi SSW 10.4 mph - N/A   Clear
12:52 PM 66.0 °F - 25.0 °F 21% 30.06 in 10.0 mi WSW 11.5 mph 24.2 mph N/A   Clear
1:52 PM 69.1 °F - 25.0 °F 19% 30.02 in 10.0 mi WSW 17.3 mph 26.5 mph N/A   Clear
2:52 PM 70.0 °F - 23.0 °F 17% 29.99 in 10.0 mi WSW 17.3 mph 26.5 mph N/A   Clear
3:52 PM 68.0 °F - 21.9 °F 17% 29.96 in 10.0 mi SW 16.1 mph - N/A   Clear
4:52 PM 69.1 °F - 23.0 °F 18% 29.95 in 10.0 mi SSW 15.0 mph 25.3 mph N/A   Clear
5:52 PM 66.0 °F - 23.0 °F 20% 29.95 in 10.0 mi SSW 15.0 mph 21.9 mph N/A   Clear
6:52 PM 62.1 °F - 23.0 °F 22% 29.95 in 10.0 mi South 11.5 mph - N/A   Clear
7:52 PM 59.0 °F - 24.1 °F 26% 29.95 in 10.0 mi South 11.5 mph - N/A   Clear
8:52 PM 57.0 °F - 24.1 °F 28% 29.95 in 10.0 mi SSW 12.7 mph - N/A   Clear
9:52 PM 57.0 °F - 24.1 °F 28% 29.96 in 10.0 mi SSW 12.7 mph - N/A   Clear
10:52 PM 55.9 °F - 25.0 °F 30% 29.94 in 10.0 mi South 12.7 mph 20.7 mph N/A   Clear
11:52 PM 57.0 °F - 27.0 °F 32% 29.94 in 10.0 mi SSW 11.5 mph 18.4 mph N/A   Clear